This demonstration page uses our WeatherBlox Daily Observations layout. Learn more.

Left ArrowRight Arrow

39.92423, -83.80882

Hourly Observations for May 22, 2022

Temp ( °F °C ) Dew Point ( °F °C ) Humidity (%) Winds ( mph kmh ) Pressure ( in mb ) Visibility ( mi km ) Precip ( " mm )
12:56 am 00:56 Cloudy with Haze N/A N/A N/A SSW 5 7 N/A 6 10 0.00 0.00
1:56 am 01:56 Mostly Cloudy 64 18 N/A N/A SSW 7 11 30.04 1017 10 16 0.00 0.00
2:56 am 02:56 Clear 64 18 N/A N/A S 9 15 30.01 1016 10 16 0.00 0.00
3:56 am 03:56 Clear 64 18 N/A N/A VRB 5 7 30.01 1016 10 16 0.00 0.00
4:56 am 04:56 Clear N/A N/A N/A WSW 6 9 N/A 7 11 0.00 0.00
5:23 am 05:23 Hazy N/A N/A N/A W 7 11 N/A 6 10 0.00 0.00
5:32 am 05:32 Mostly Cloudy with Haze N/A N/A N/A W 6 9 N/A 6 10 0.00 0.00
5:54 am 05:54 Cloudy with Haze N/A N/A N/A W 9 15 N/A 5 8 0.00 0.00
5:56 am 05:56 Cloudy with Haze N/A N/A N/A W 10 17 N/A 5 8 0.00 0.00
6:39 am 06:39 Mostly Cloudy with Haze 64 18 N/A N/A WSW 12 19 30.04 1017 4 6 0.00 0.00
6:51 am 06:51 Mostly Cloudy with Haze 64 18 N/A N/A WSW 10 17 30.05 1018 4 6 0.00 0.00
6:56 am 06:56 Mostly Cloudy with Haze 64 18 N/A N/A W 9 15 30.05 1018 5 8 0.00 0.00
7:30 am 07:30 Mostly Cloudy with Haze 64 18 N/A N/A W 8 13 30.06 1018 5 8 0.00 0.00
7:48 am 07:48 Cloudy with Haze N/A N/A N/A W 9 15 N/A 5 8 0.00 0.00
7:56 am 07:56 Cloudy with Haze 64 18 N/A N/A W 12 19 30.07 1018 5 8 0.00 0.00
8:25 am 08:25 Cloudy 64 18 N/A N/A W 9 15 30.08 1019 7 11 0.00 0.00
8:53 am 08:53 Cloudy with Haze 63 17 N/A N/A NNW 14 22 30.09 1019 6 10 0.00 0.00
8:56 am 08:56 Cloudy with Haze 63 17 N/A N/A NW 12 19 30.09 1019 6 10 0.00 0.00
9:30 am 09:30 Cloudy 61 16 N/A N/A NW 12 19 30.13 1020 10 16 0.00 0.00
9:56 am 09:56 Cloudy 61 16 N/A N/A NW 13 20 30.14 1021 10 16 0.00 0.00
10:56 am 10:56 Cloudy 61 16 N/A N/A NW 12 19 30.16 1021 10 16 0.00 0.00
11:04 am 11:04 Cloudy 59 15 N/A N/A NNW 12 19 30.16 1021 10 16 0.00 0.00
11:24 am 11:24 Cloudy 61 16 61 16 100 100 NNW 12 19 30.17 1022 10 16 0.00 0.00
11:46 am 11:46 Cloudy 63 17 57 14 83 83 NW 10 17 30.17 1022 10 16 0.00 0.00
11:56 am 11:56 Cloudy 63 17.2 58 14.4 84 84 N 12 19 30.16 1021 10 16 0.00 0.00
12:56 pm 12:56 Cloudy 62 16.7 55 12.8 78 78 N 12 19 30.19 1023 10 16 0.00 0.00
1:56 pm 13:56 Cloudy 63 17.2 55 12.8 76 76 N 12 19 30.22 1023 10 16 0.00 0.00
2:30 pm 14:30 Cloudy 64 18 54 12 68 68 NW 8 13 30.20 1023 10 16 0.00 0.00
2:56 pm 14:56 Mostly Cloudy 66 18.9 54 12.2 65 65 NNW 9 15 30.22 1023 10 16 0.00 0.00
3:56 pm 15:56 Cloudy 66 18.9 54 12.2 65 65 NNW 10 17 30.22 1023 10 16 0.00 0.00
4:56 pm 16:56 Cloudy 66 18.9 51 10.6 59 59 NW 10 17 30.22 1023 10 16 0.00 0.00
5:56 pm 17:56 Mostly Cloudy 67 19.4 52 11.1 59 59 WNW 10 17 30.21 1023 10 16 0.00 0.00
6:56 pm 18:56 Sunny 65 18.3 48 8.9 54 54 WNW 10 17 30.24 1024 10 16 0.00 0.00
7:56 pm 19:56 Sunny 62 16.7 46 7.8 56 56 NNW 10 17 30.24 1024 10 16 0.00 0.00
8:56 pm 20:56 Clear 59 15 47 8.3 64 64 NNW 6 9 30.25 1024 10 16 0.00 0.00
9:56 pm 21:56 Clear 58 14.4 48 8.9 70 70 NW 6 9 30.29 1026 10 16 0.00 0.00
10:56 pm 22:56 Clear 57 13.9 45 7.2 64 64 NNW 13 20 30.31 1026 10 16 0.00 0.00
11:56 pm 23:56 Clear 55 12.8 42 5.6 62 62 NNW 10 17 30.32 1027 10 16 0.00 0.00

Powered by AerisWeather